Temperature
20 18 18 18 19 19 19 19 19 19 19 18 18 18 17 17 17 17 17 17 18 18 18 18 17 17 17 17 17 16 16 16 16 16 16 15 15 15 15 15 15 15 15 15
18 18 19 19 19 19 19 19 19 19 19 19 18 18 17 17 16 17 17 17 18 18 18 18 18 17 17 17 17 16 16 16 16 16 16 15 15 15 15 15 15 15 15 15
19 19 20 20 19 19 19 19 19 19 19 18 18 17 17 17 17 17 17 18 18 18 18 18 18 17 17 17 17 17 16 16 16 16 16 15 15 15 15 15 15 15 14 14
19 19 20 20 20 19 19 20 20 19 18 17 18 17 17 16 16 16 17 17 18 18 18 18 18 17 17 17 17 17 16 16 16 16 16 15 15 15 15 15 15 15 15 14
19 19 20 20 20 20 19 19 19 19 18 17 17 16 16 16 16 16 16 17 18 18 18 18 18 18 17 17 17 17 16 16 16 16 15 15 15 15 15 15 15 15 15 15
19 19 20 20 20 19 19 18 17 16 16 17 17 16 16 15 16 16 16 17 18 18 18 18 18 18 17 17 17 17 16 16 16 16 15 15 15 15 15 15 15 15 15 15
19 19 19 20 20 19 18 17 16 17 16 16 17 16 16 17 16 17 17 17 18 18 18 18 18 18 17 17 17 17 16 16 16 16 15 15 15 15 15 15 15 15 15 15
18 18 19 19 19 19 18 17 17 17 16 16 17 16 16 17 17 17 17 18 18 18 18 18 18 18 17 17 17 17 16 16 16 16 15 15 15 15 15 15 15 15 15 15
17 18 19 19 19 19 18 17 17 16 16 16 16 16 17 17 17 16 17 17 17 18 18 18 18 18 18 17 17 17 17 16 16 16 16 15 15 15 15 15 15 15 15 15
17 18 18 19 19 18 18 16 15 16 16 16 17 16 16 17 17 16 15 16 17 18 18 18 18 18 18 17 17 17 17 16 16 16 16 16 15 15 15 15 15 15 15 15
17 17 18 18 18 18 17 16 15 14 15 15 16 16 17 16 16 16 16 17 17 18 18 18 18 18 17 17 17 17 17 16 16 16 16 16 16 15 15 15 15 15 15 15
16 15 16 17 18 18 18 17 15 16 15 14 15 15 17 16 16 16 17 17 17 18 18 18 18 18 17 17 17 17 17 16 16 16 16 16 16 15 15 15 15 15 15 15
16 15 16 17 17 17 17 17 16 15 14 13 15 16 16 16 16 17 17 17 17 17 18 18 17 17 17 17 17 17 16 16 16 16 16 16 16 16 15 15 15 15 15 15
16 15 15 16 16 16 17 17 16 15 14 14 14 15 16 16 15 16 17 17 17 17 17 17 17 17 17 17 17 17 16 16 16 16 16 16 16 16 15 15 15 15 15 15
15 15 15 16 16 16 16 17 16 15 15 15 15 15 16 16 16 16 17 17 17 17 17 17 17 17 17 17 17 17 16 16 16 16 16 16 16 16 15 15 15 15 15 14
14 15 15 16 16 16 16 16 16 15 15 15 15 15 16 16 16 16 16 16 16 17 17 17 17 17 17 17 17 17 16 16 16 16 16 16 16 15 15 15 15 15 14 14
12 14 14 14 15 16 15 16 16 15 15 15 15 15 15 15 15 16 16 17 17 17 17 17 17 17 17 17 17 16 16 16 16 16 16 16 16 15 15 15 15 15 14 14
12 12 12 13 15 15 15 16 16 16 15 15 15 15 15 16 17 17 17 18 18 18 17 17 17 17 17 17 16 16 16 16 16 16 15 15 15 15 15 15 15 14 14 14
12 12 12 12 13 14 15 16 15 15 15 15 15 15 16 16 16 16 17 18 18 18 18 18 17 17 16 16 16 16 16 15 15 15 15 15 15 15 15 15 15 14 14 14
11 11 11 11 13 14 15 16 16 16 15 15 15 15 15 15 14 15 17 17 18 17 17 17 17 16 16 16 16 16 15 15 15 15 15 15 15 15 14 14 14 14 14 14
12 11 11 11 13 13 14 15 16 15 15 16 16 15 15 14 15 17 17 17 17 17 17 17 16 16 16 16 15 15 15 15 15 15 14 14 14 14 14 14 14 14 14 14
11 11 11 11 12 13 14 14 14 14 16 16 15 15 15 16 16 16 17 17 17 16 16 16 16 16 16 15 15 15 15 15 14 14 14 14 14 14 14 14 13 13 13 13
10 11 11 11 12 13 14 15 16 16 16 16 16 16 16 15 16 16 16 16 16 16 16 16 15 15 15 15 15 15 15 14 14 14 13 13 13 13 13 13 13 13 13 13
10 10 10 10 11 12 14 14 15 16 16 16 16 16 16 15 15 16 16 16 16 16 15 15 15 15 14 14 14 14 14 14 14 13 13 13 13 13 13 12 12 12 12 12
10 9 9 10 10 12 13 14 14 15 15 15 15 15 15 15 15 15 15 15 15 15 15 15 14 14 14 14 14 14 13 13 13 13 13 13 12 12 12 12 12 12 12 12
9 9 10 10 11 11 13 14 14 14 14 14 14 14 14 15 15 15 15 15 15 15 14 14 14 14 14 13 13 13 13 13 13 12 12 12 12 12 12 12 12 11 11 11
Wind_Speed
3 4 1 4 5 4 4 3 1 3 1 3 2 2 3 2 3 4 4 5 5 5 3 2 2 3 3 2 2 2 3 3 3 2 2 2 2 2 2 3 4 4 4 5
5 1 4 3 3 3 3 2 1 2 1 2 1 2 2 2 3 5 5 6 6 4 3 3 3 3 3 3 2 2 3 3 3 2 2 2 2 1 1 2 4 4 4 4
4 3 1 3 2 3 2 4 3 2 2 3 2 4 3 2 1 1 2 3 4 6 6 4 4 4 3 4 3 3 3 2 2 3 3 3 3 3 3 3 3 3 3 3
2 2 1 2 2 4 2 3 4 3 3 1 1 2 5 3 2 2 3 3 5 5 4 5 5 4 4 4 3 3 2 2 2 3 3 4 2 1 0 0 1 2 3 3
2 1 2 2 3 4 3 1 3 2 3 1 2 1 6 3 3 6 6 5 5 5 5 6 6 5 4 3 3 3 3 2 2 3 3 4 3 2 1 1 2 2 3 3
2 1 2 3 1 3 4 6 6 5 4 1 2 3 4 3 5 5 4 4 5 5 4 5 4 4 3 3 3 3 3 2 2 3 3 4 4 3 3 1 1 1 1 2
3 3 2 1 2 3 5 5 4 4 3 3 1 2 5 4 4 4 5 5 5 4 4 4 4 5 4 4 4 3 4 2 2 3 3 4 4 4 4 3 2 1 0 1
2 3 2 1 4 4 3 6 6 3 3 3 1 3 5 3 3 1 1 2 3 4 4 4 5 5 5 4 4 4 4 3 3 3 3 3 3 3 3 3 2 2 2 1
5 4 3 1 2 7 5 3 5 5 2 0 3 4 5 2 4 3 2 2 3 4 4 4 4 4 4 5 5 5 5 4 3 3 2 2 3 3 3 3 2 2 2 1
6 3 3 1 4 3 4 7 5 4 3 2 3 3 3 4 2 1 1 1 3 3 3 3 3 4 4 4 3 4 4 4 3 3 3 2 2 3 3 3 3 2 2 2
3 3 2 2 2 3 3 4 4 4 4 4 2 5 4 5 4 3 4 3 3 3 4 4 3 3 3 3 3 3 3 3 2 3 2 2 2 2 2 2 2 3 2 2
3 4 1 4 3 2 4 5 6 5 3 3 3 5 4 3 4 3 3 3 2 3 3 3 4 3 3 3 2 3 3 2 3 3 3 3 2 2 2 2 2 2 2 2
4 5 2 4 4 1 1 2 4 5 5 4 4 5 3 1 0 1 2 2 2 2 2 2 3 3 3 3 3 3 3 3 2 2 3 3 3 3 3 2 2 2 2 2
4 3 5 7 5 3 2 2 4 5 4 4 6 6 5 3 1 2 2 2 2 3 3 3 3 2 3 3 3 3 3 3 3 3 3 3 3 4 3 3 2 2 2 3
4 3 3 4 4 3 4 4 6 6 7 8 7 7 8 6 5 4 3 3 3 2 2 3 3 3 2 2 2 2 2 2 2 3 3 3 3 3 3 2 2 2 2 3
2 3 2 2 2 3 4 6 6 7 5 6 5 7 7 4 3 2 3 4 4 4 4 4 3 3 3 3 3 2 2 2 2 3 3 3 3 3 3 3 3 3 2 2
1 4 3 3 3 2 6 6 7 5 5 7 8 8 3 3 5 6 6 6 7 6 6 5 5 5 5 5 4 4 3 3 3 3 3 3 3 3 3 3 3 3 3 3
5 4 3 1 1 5 7 3 5 5 5 5 5 5 5 7 6 5 5 7 7 6 6 6 6 5 4 4 3 3 2 3 3 3 2 3 3 3 3 3 3 3 3 3
6 6 4 3 3 6 7 4 4 5 4 5 6 5 4 2 1 3 3 5 6 6 6 6 5 5 4 3 3 3 3 3 3 3 3 3 4 4 3 3 3 3 3 3
3 4 5 4 4 7 7 4 3 3 5 5 4 4 3 4 2 5 4 3 4 3 3 3 3 3 3 2 4 4 3 3 4 4 4 3 3 4 4 4 3 2 3 3
3 2 5 5 5 7 7 3 4 4 6 3 4 4 4 6 6 5 2 3 3 3 2 3 4 3 3 3 4 4 3 4 4 3 3 3 3 4 4 3 3 3 3 3
6 5 5 5 5 8 4 4 6 6 2 1 2 2 3 3 2 1 1 3 3 3 3 3 4 2 2 4 5 4 3 3 2 3 3 3 3 3 3 4 3 3 4 4
5 6 5 7 7 4 1 3 3 3 2 2 2 2 3 2 2 1 1 2 3 3 3 3 4 3 1 2 4 4 3 2 3 3 3 3 2 2 3 4 4 3 3 3
4 2 3 3 5 4 3 2 1 1 2 2 3 3 3 3 2 2 2 2 3 3 3 3 4 3 2 2 3 3 2 3 4 4 3 3 3 2 2 3 3 3 3 3
5 3 3 5 6 3 4 4 3 1 1 1 1 1 3 3 2 2 3 3 3 3 3 4 4 4 3 2 2 2 2 4 4 4 3 3 3 3 2 2 2 3 4 5
5 6 6 7 7 5 6 4 2 2 2 2 1 1 1 2 3 3 2 2 2 3 3 3 3 3 2 2 2 2 3 4 5 4 3 3 3 2 2 3 1 0 1 2
Wind_Direction
43 76 174 210 191 171 148 148 211 267 244 140 188 267 276 206 198 217 228 229 228 233 234 194 174 156 129 117 126 136 124 119 109 91 88 78 49 19 24 35 50 73 98 110
46 308 242 185 145 134 138 148 230 318 24 146 161 304 298 194 208 207 209 217 221 221 215 194 177 168 157 154 152 145 146 144 141 130 117 114 111 66 21 23 47 60 84 108
169 250 176 135 133 133 168 180 198 205 46 50 61 337 323 280 245 255 230 218 218 213 209 200 189 190 175 175 177 174 171 162 142 122 100 81 61 44 31 28 25 29 66 85
223 273 115 120 162 155 233 224 184 157 111 325 64 309 307 291 302 276 245 226 223 221 205 198 195 194 195 195 174 165 163 154 136 128 127 125 124 120 233 5 21 31 57 71
252 189 134 182 214 168 196 91 112 122 132 45 28 145 299 330 293 274 253 233 224 217 204 202 198 192 186 176 167 167 150 145 141 139 139 132 131 141 108 70 62 45 41 61
250 245 185 201 164 144 130 74 59 52 74 351 258 168 290 269 257 276 259 235 222 212 200 194 182 163 162 155 156 157 151 161 161 155 149 151 154 147 124 110 89 43 30 36
338 328 311 150 93 52 88 88 41 11 18 264 243 167 253 272 262 243 238 228 212 193 183 180 175 176 174 167 167 166 162 178 181 172 176 178 174 166 168 174 169 156 90 23
167 287 274 190 166 165 150 136 151 186 218 282 332 230 260 297 306 292 230 185 170 174 183 186 187 185 181 179 176 173 175 186 191 188 196 193 183 176 180 182 175 178 184 200
175 246 294 239 170 139 135 152 159 133 139 299 287 290 308 14 18 28 52 91 176 186 187 190 183 177 180 183 187 184 180 184 192 191 186 191 191 184 182 178 175 184 190 181
160 199 294 297 77 45 129 141 107 121 149 237 295 290 272 292 295 332 10 231 221 191 181 187 189 185 182 183 182 173 181 187 188 182 185 189 187 187 176 162 175 185 191 165
141 158 311 46 154 178 108 109 118 125 150 159 239 274 234 227 218 212 227 225 212 191 187 188 187 184 170 155 152 161 172 177 185 186 181 172 177 166 157 164 186 190 182 172
143 128 221 260 256 202 167 166 150 155 198 172 175 261 278 233 221 201 214 221 210 187 179 175 167 153 145 154 159 168 176 182 196 191 180 178 171 155 157 180 193 180 180 176
135 115 83 343 337 8 142 161 153 134 129 158 175 252 313 17 109 201 195 205 193 159 145 138 139 151 160 167 172 179 191 197 192 171 169 167 169 167 176 184 178 165 160 151
122 122 168 201 222 207 224 194 161 141 163 195 213 236 286 293 258 241 211 197 173 166 163 157 167 175 171 172 176 180 196 195 178 164 164 176 191 188 188 183 171 171 165 160
112 156 197 235 242 211 221 218 187 187 192 196 218 220 246 244 231 224 203 170 151 168 177 182 187 186 176 176 185 187 192 185 175 169 182 197 193 182 174 173 172 165 162 169
79 153 166 275 265 237 260 252 220 216 208 206 220 249 246 231 192 186 190 174 181 197 204 201 193 186 191 199 199 188 195 195 170 176 198 193 173 166 170 176 167 157 161 161
111 137 140 247 290 345 272 246 217 212 206 186 214 234 228 202 200 200 201 196 201 205 204 200 202 205 206 207 199 199 202 182 166 175 185 177 167 170 178 174 161 167 172 159
157 141 144 179 84 235 249 236 197 205 236 215 217 229 211 215 212 205 197 197 209 207 203 204 204 206 208 202 192 190 171 166 172 175 180 179 169 172 172 164 174 181 169 164
177 157 147 154 205 263 281 252 190 189 248 233 218 230 229 218 73 303 239 208 212 206 202 202 199 195 189 182 176 158 161 165 173 190 200 193 181 176 170 174 181 177 163 165
117 141 146 159 186 230 247 254 211 149 262 259 206 214 200 128 166 259 252 207 211 200 187 181 167 156 164 174 153 148 163 169 198 211 208 195 179 176 178 180 170 153 158 168
126 137 172 190 215 253 258 258 137 173 246 259 193 195 174 182 214 243 224 193 185 172 165 153 146 154 180 172 152 156 168 202 216 200 173 171 176 179 177 165 157 145 143 141
179 174 187 176 208 248 253 150 180 216 231 176 176 179 191 213 242 267 169 172 156 143 137 144 147 157 167 162 156 164 203 220 182 158 156 166 171 173 165 153 150 147 143 146
201 195 186 191 213 243 235 197 212 174 177 194 185 210 187 203 223 215 194 180 168 158 155 152 149 145 148 171 168 181 218 181 145 143 156 160 153 150 150 153 153 147 150 158
254 199 172 237 258 267 264 278 282 186 199 211 199 196 185 201 208 198 188 188 177 169 164 155 147 152 186 199 188 196 189 160 147 154 163 158 157 153 151 155 159 162 174 180
229 181 204 249 265 290 278 258 255 245 206 147 144 182 191 180 191 199 197 195 187 178 170 164 166 179 206 203 192 182 161 157 154 159 165 165 167 163 159 160 175 186 198 192
218 199 198 233 234 215 245 250 234 213 223 202 165 327 308 186 191 187 197 199 181 175 169 168 174 181 198 195 203 191 170 163 163 166 173 177 175 172 165 157 129 179 186 195
Height
1514 1519 1524 1522 1521 1523 1526 1530 1532 1529 1524 1527 1529 1529 1527 1527 1528 1528 1529 1529 1530 1531 1533 1534 1535 1537 1538 1539 1540 1541 1541 1542 1542 1543 1544 1544 1544 1544 1544 1544 1544 1544 1544 1544
1520 1522 1518 1517 1519 1521 1525 1530 1531 1528 1524 1527 1530 1530 1527 1526 1527 1527 1527 1528 1529 1531 1532 1534 1535 1536 1537 1539 1540 1541 1541 1542 1543 1544 1544 1545 1545 1545 1545 1545 1545 1545 1546 1546
1521 1519 1515 1517 1520 1524 1526 1529 1529 1529 1526 1527 1530 1534 1529 1526 1526 1526 1526 1527 1528 1529 1531 1533 1534 1535 1537 1538 1539 1540 1541 1542 1543 1544 1545 1545 1546 1546 1546 1546 1546 1546 1547 1547
1518 1516 1516 1518 1521 1522 1528 1522 1523 1526 1533 1539 1535 1547 1534 1528 1527 1525 1525 1525 1526 1528 1530 1532 1533 1534 1536 1538 1539 1540 1541 1542 1543 1544 1545 1545 1546 1546 1547 1547 1547 1547 1548 1548
1519 1516 1517 1519 1519 1519 1522 1520 1523 1526 1533 1540 1539 1546 1540 1530 1529 1525 1523 1523 1524 1526 1528 1530 1532 1534 1535 1537 1539 1540 1541 1542 1543 1544 1545 1545 1546 1547 1547 1548 1548 1548 1548 1549
1516 1514 1514 1515 1515 1516 1519 1524 1528 1534 1539 1549 1542 1546 1544 1534 1528 1523 1521 1521 1522 1524 1526 1529 1531 1533 1535 1536 1538 1539 1541 1542 1543 1543 1544 1545 1546 1546 1547 1548 1548 1549 1549 1549
1520 1516 1513 1513 1517 1518 1521 1534 1548 1549 1555 1553 1540 1543 1540 1525 1522 1520 1519 1519 1520 1522 1525 1527 1530 1532 1533 1535 1537 1538 1539 1541 1542 1543 1544 1544 1545 1546 1547 1548 1548 1549 1549 1549
1527 1528 1516 1513 1516 1521 1524 1530 1548 1556 1557 1552 1541 1544 1533 1522 1519 1518 1518 1518 1519 1521 1524 1526 1528 1531 1532 1534 1536 1537 1539 1540 1541 1542 1543 1544 1545 1546 1547 1548 1548 1549 1549 1550
1526 1526 1514 1512 1512 1516 1525 1530 1531 1544 1547 1552 1546 1538 1527 1520 1519 1518 1518 1518 1519 1521 1523 1526 1528 1530 1532 1533 1535 1537 1538 1539 1540 1542 1542 1543 1544 1545 1546 1547 1548 1549 1549 1550
1517 1523 1516 1513 1513 1516 1518 1525 1536 1543 1553 1556 1547 1542 1537 1525 1521 1519 1518 1518 1519 1521 1523 1525 1527 1529 1531 1533 1534 1536 1537 1539 1540 1541 1541 1542 1543 1544 1545 1546 1547 1548 1549 1549
1514 1522 1521 1517 1519 1521 1523 1527 1533 1541 1543 1553 1555 1547 1524 1521 1519 1519 1518 1518 1518 1520 1522 1524 1526 1528 1530 1532 1533 1534 1536 1537 1538 1539 1540 1541 1542 1543 1544 1545 1546 1547 1548 1549
1514 1522 1528 1521 1515 1514 1516 1521 1529 1539 1544 1546 1550 1544 1518 1517 1516 1516 1516 1517 1518 1519 1521 1523 1525 1527 1528 1530 1532 1533 1534 1535 1537 1538 1539 1540 1541 1542 1543 1544 1545 1546 1547 1548
1513 1522 1532 1530 1526 1519 1519 1519 1523 1529 1539 1547 1548 1540 1517 1516 1515 1515 1516 1517 1517 1518 1520 1522 1524 1525 1527 1528 1530 1531 1532 1534 1535 1536 1537 1538 1539 1540 1541 1542 1544 1545 1546 1546
1510 1520 1527 1531 1526 1521 1521 1519 1521 1527 1538 1541 1538 1531 1520 1516 1516 1515 1515 1515 1516 1518 1519 1521 1522 1524 1525 1527 1528 1529 1530 1532 1533 1534 1535 1536 1538 1539 1540 1541 1542 1543 1544 1545
1510 1520 1519 1518 1516 1517 1518 1518 1519 1522 1525 1530 1527 1525 1518 1514 1514 1513 1514 1514 1515 1517 1518 1519 1520 1522 1523 1525 1526 1527 1528 1530 1531 1532 1533 1534 1536 1537 1538 1539 1540 1541 1542 1543
1512 1518 1518 1518 1515 1516 1517 1515 1516 1517 1518 1521 1521 1520 1511 1511 1511 1512 1513 1513 1514 1515 1516 1517 1519 1520 1521 1523 1524 1525 1527 1528 1529 1530 1531 1532 1533 1534 1536 1537 1538 1539 1540 1541
1515 1518 1523 1525 1518 1516 1520 1512 1512 1513 1512 1514 1517 1513 1508 1510 1509 1509 1510 1510 1511 1512 1514 1515 1517 1518 1520 1521 1522 1524 1525 1526 1527 1528 1529 1530 1531 1532 1533 1535 1536 1537 1538 1539
1515 1519 1525 1526 1522 1527 1514 1504 1505 1507 1507 1507 1506 1505 1505 1505 1505 1506 1507 1508 1509 1510 1512 1513 1515 1516 1518 1520 1521 1522 1523 1524 1525 1526 1527 1528 1529 1530 1531 1532 1533 1534 1535 1536
1508 1515 1524 1528 1527 1521 1509 1502 1503 1506 1506 1502 1502 1502 1502 1503 1504 1505 1505 1506 1507 1508 1509 1511 1513 1514 1516 1517 1519 1520 1520 1521 1522 1523 1524 1525 1527 1527 1529 1530 1531 1532 1533 1534
1508 1510 1520 1525 1524 1523 1507 1498 1498 1502 1506 1499 1499 1500 1501 1502 1507 1504 1502 1503 1504 1506 1508 1509 1511 1512 1514 1515 1516 1517 1518 1518 1519 1520 1522 1523 1524 1525 1526 1527 1528 1529 1530 1531
1512 1515 1519 1521 1520 1513 1500 1496 1497 1509 1505 1497 1496 1497 1499 1500 1501 1500 1500 1501 1502 1504 1506 1507 1508 1510 1511 1513 1514 1515 1515 1516 1517 1518 1519 1520 1521 1522 1523 1524 1526 1527 1528 1529
1509 1513 1517 1519 1519 1513 1495 1495 1499 1498 1494 1495 1495 1495 1496 1497 1497 1497 1498 1499 1500 1501 1503 1505 1506 1507 1509 1511 1512 1512 1513 1514 1515 1516 1516 1518 1519 1520 1520 1522 1523 1524 1525 1526
1504 1502 1504 1505 1504 1495 1492 1492 1492 1492 1493 1493 1493 1494 1494 1495 1495 1495 1496 1497 1498 1500 1501 1502 1504 1505 1507 1508 1509 1510 1511 1512 1512 1513 1514 1515 1516 1517 1518 1519 1520 1521 1522 1523
1499 1497 1499 1500 1495 1492 1491 1490 1490 1490 1491 1491 1492 1492 1492 1492 1493 1493 1494 1495 1496 1497 1499 1500 1502 1503 1504 1505 1506 1507 1508 1509 1509 1510 1511 1512 1513 1514 1515 1516 1517 1518 1519 1520
1494 1495 1497 1497 1492 1490 1489 1488 1488 1489 1489 1489 1489 1490 1490 1490 1491 1491 1492 1492 1494 1495 1497 1498 1499 1500 1502 1503 1503 1504 1505 1506 1506 1507 1508 1509 1510 1511 1512 1513 1514 1515 1516 1518
1490 1491 1493 1491 1487 1487 1486 1486 1486 1486 1486 1486 1487 1487 1487 1488 1488 1488 1489 1490 1491 1492 1494 1495 1497 1498 1499 1500 1501 1501 1502 1503 1503 1504 1505 1506 1507 1508 1509 1509 1510 1511 1513 1514